K2MST Weather Reports


time (UTC)temp
F
wind
direction
speed
knots
gust
knots
rain 1hr
in
rain 24hr
in
rain mn
in
humidity
%
barometer
mb
20260905083521 64 0.0 0.0 0.00 0.00 0.00 82 1010.4
20260905082541 65 0.0 1.7 0.00 0.00 0.00 82 1010.5
20260905081521 65 0.0 0.9 0.00 0.00 0.00 82 1010.6
20260905080521 65 0.0 0.0 0.00 0.00 0.00 82 1010.6
20260905075521 65 0.0 1.7 0.00 0.00 0.00 82 1010.6
20260905074521 66 0.0 0.9 0.00 0.00 0.00 81 1010.5
20260905073521 66 293 0.9 1.7 0.00 0.00 0.00 81 1010.4
20260905072521 66 0.0 0.9 0.00 0.00 0.00 81 1010.5
20260905071521 66 0.0 0.9 0.00 0.00 0.00 80 1010.6
20260905070541 67 0.0 1.7 0.00 0.00 0.00 80 1010.8
20260905065521 67 0.0 0.9 0.00 0.00 0.00 80 1010.7
20260905064520 68 0.0 1.7 0.00 0.00 0.00 79 1010.7
20260905063520 68 0.0 0.9 0.00 0.00 0.00 79 1010.7
20260905062522 68 0.0 1.7 0.00 0.00 0.00 79 1010.7
20260905061520 69 293 0.9 1.7 0.00 0.00 0.00 78 1010.7
20260905060701 69 0.0 1.7 0.00 0.00 0.00 79 1010.8
20260905055520 69 23 0.9 1.7 0.00 0.00 0.00 79 1010.8
20260905054520 69 0.0 1.7 0.00 0.00 0.00 79 1010.8
20260905053522 69 0.0 1.7 0.00 0.00 0.00 78 1010.9
20260905052521 69 0.0 1.7 0.00 0.00 0.00 79 1011.0
20260905051520 69 315 0.9 2.6 0.00 0.00 0.00 79 1011.0
20260905050520 69 0.0 1.7 0.00 0.00 0.00 79 1011.0
20260905045521 70 248 0.9 1.7 0.00 0.00 0.00 79 1011.1
20260905044540 70 293 0.9 3.5 0.00 0.00 0.00 79 1011.1
20260905043600 70 248 0.9 1.7 0.00 0.00 0.00 79 1011.0
20260905042520 69 338 0.9 2.6 0.00 0.00 0.00 80 1011.0
20260905041520 69 0 0.9 2.6 0.00 0.00 0.00 80 1011.0
20260905040522 70 0 0.9 2.6 0.00 0.00 0.00 79 1010.9
20260905035540 69 0.0 1.7 0.00 0.00 0.00 80 1010.9
20260905034520 69 0.0 0.9 0.00 0.00 0.00 80 1011.0
20260905033520 68 248 0.9 1.7 0.00 0.00 0.00 81 1011.0
20260905032520 68 0.0 0.9 0.00 0.00 0.00 80 1011.0
20260905031520 68 225 0.9 3.5 0.00 0.00 0.00 80 1010.8
20260905030521 68 158 0.9 1.7 0.00 0.00 0.00 79 1010.6
20260905025520 68 180 0.9 2.6 0.00 0.00 0.00 78 1010.8
20260905024520 68 0.0 1.7 0.00 0.00 0.00 78 1010.9
20260905023520 68 180 0.9 1.7 0.00 0.00 0.00 77 1011.0
20260905022520 68 158 0.9 1.7 0.00 0.00 0.00 76 1011.0
20260905021520 69 0.0 0.9 0.00 0.00 0.00 75 1011.0
20260905020519 69 248 0.9 2.6 0.00 0.00 0.00 74 1011.1
20260905015519 69 225 0.9 1.7 0.00 0.00 0.00 73 1011.2
20260905014519 70 0.0 0.0 0.00 0.00 0.00 72 1011.2
20260905013521 70 0.0 0.9 0.00 0.00 0.00 72 1011.2
20260905012519 70 0.0 0.9 0.00 0.00 0.00 71 1011.3
20260905011522 71 248 0.9 1.7 0.00 0.00 0.00 69 1011.2
20260905010521 71 248 0.9 0.9 0.00 0.00 0.00 68 1011.2
20260905005521 72 225 0.9 1.7 0.00 0.00 0.00 67 1011.2
20260905004521 73 248 0.9 1.7 0.00 0.00 0.00 65 1011.2
20260905003521 74 248 0.9 2.6 0.00 0.00 0.00 64 1011.0
20260905002601 74 315 0.9 2.6 0.00 0.00 0.00 63 1011.0
20260905001521 74 315 0.9 2.6 0.00 0.00 0.00 63 1010.9
20260905000521 74 293 0.9 3.5 0.00 0.00 0.00 64 1010.8
20260904235541 74 338 1.7 3.5 0.00 0.00 0.00 63 1010.8
20260904234521 74 0 0.9 2.6 0.00 0.00 0.00 63 1010.8
20260904233601 74 338 3.5 5.2 0.00 0.00 0.00 63 1010.8
20260904232521 74 338 2.6 5.2 0.00 0.00 0.00 61 1010.7
20260904231524 74 338 3.5 6.1 0.00 0.00 0.00 61 1010.7
20260904230521 75 23 3.5 6.1 0.00 0.00 0.00 60 1010.7
20260904225522 75 23 3.5 5.2 0.00 0.00 0.00 59 1010.5
20260904224521 76 338 3.5 6.1 0.00 0.00 0.00 56 1010.6
20260904223521 76 338 5.2 9.6 0.00 0.00 0.00 57 1010.5
20260904222521 77 23 5.2 9.6 0.00 0.00 0.00 56 1010.3
20260904221541 77 338 5.2 11.3 0.00 0.00 0.00 55 1010.3
20260904220521 77 338 7.0 10.4 0.00 0.00 0.00 54 1010.4
20260904215521 77 338 6.1 12.2 0.00 0.00 0.00 55 1010.4
20260904214521 78 338 6.1 12.2 0.00 0.00 0.00 55 1010.6
20260904213521 78 23 3.5 6.1 0.00 0.00 0.00 56 1010.5
20260904212521 78 23 5.2 10.4 0.00 0.00 0.00 55 1010.4
20260904211521 78 338 6.1 10.4 0.00 0.00 0.00 56 1010.6
20260904210521 78 338 7.0 13.9 0.00 0.00 0.00 55 1010.6
20260904205541 78 338 5.2 10.4 0.00 0.00 0.00 55 1010.7
20260904204522 79 338 6.1 13.9 0.00 0.00 0.00 53 1010.7
20260904203521 79 338 7.8 14.8 0.00 0.00 0.00 51 1010.8
20260904202520 79 338 7.8 15.6 0.00 0.00 0.00 52 1010.9
20260904201521 79 338 5.2 10.4 0.00 0.00 0.00 53 1011.0
20260904200522 79 293 4.3 11.3 0.00 0.00 0.00 54 1011.0
20260904195541 80 293 6.1 13.9 0.00 0.00 0.00 51 1011.1
20260904194521 80 315 5.2 10.4 0.00 0.00 0.00 54 1011.1
20260904193600 79 293 4.3 8.7 0.00 0.00 0.00 53 1011.2
20260904192520 79 293 7.0 13.0 0.00 0.00 0.00 54 1011.4
20260904191520 79 338 6.1 11.3 0.00 0.00 0.00 53 1011.4
20260904190520 79 293 6.1 12.2 0.00 0.00 0.00 54 1011.4
20260904185520 79 293 6.1 11.3 0.00 0.00 0.00 54 1011.4
20260904184521 79 338 5.2 10.4 0.00 0.00 0.00 55 1011.5
20260904183520 79 293 6.1 11.3 0.00 0.00 0.00 55 1011.6
20260904182520 78 315 3.5 7.8 0.00 0.00 0.00 56 1011.5
20260904181540 78 338 5.2 10.4 0.00 0.00 0.00 54 1011.6
20260904180540 79 338 5.2 11.3 0.00 0.00 0.00 54 1011.6
20260904175520 80 293 5.2 11.3 0.00 0.00 0.00 53 1011.8
20260904174520 80 293 5.2 9.6 0.00 0.00 0.00 52 1011.8
20260904173620 79 293 5.2 10.4 0.00 0.00 0.00 54 1011.8
20260904172520 78 293 4.3 9.6 0.00 0.00 0.00 56 1011.8
20260904171600 80 293 4.3 7.8 0.00 0.00 0.00 53 1011.9
20260904170540 78 338 7.0 10.4 0.00 0.00 0.00 57 1011.9
20260904165520 78 338 7.0 13.0 0.00 0.00 0.00 54 1012.1
20260904164520 77 338 7.8 13.0 0.00 0.00 0.00 58 1012.0
20260904163520 77 338 6.1 12.2 0.00 0.00 0.00 58 1011.9
20260904162520 78 338 6.1 12.2 0.00 0.00 0.00 59 1012.0
20260904161520 77 315 4.3 8.7 0.00 0.00 0.00 62 1012.1
20260904160519 77 338 4.3 9.6 0.00 0.00 0.00 61 1011.9
20260904155522 77 338 7.0 11.3 0.00 0.00 0.00 61 1012.0
20260904154522 78 315 4.3 10.4 0.00 0.00 0.00 60 1012.0
20260904153522 78 338 5.2 10.4 0.00 0.00 0.00 60 1011.9
20260904152521 76 23 3.5 7.8 0.00 0.00 0.00 64 1012.0
20260904151521 77 338 3.5 9.6 0.00 0.00 0.00 62 1012.0
20260904150521 77 338 2.6 6.1 0.00 0.00 0.00 64 1012.0
20260904145523 77 315 2.6 5.2 0.00 0.00 0.00 65 1012.1
20260904144521 76 293 2.6 5.2 0.00 0.00 0.00 66 1012.1
20260904143521 76 338 3.5 6.1 0.00 0.00 0.00 68 1012.1
20260904142521 76 248 2.6 5.2 0.00 0.00 0.00 71 1012.0
20260904141642 75 293 1.7 4.3 0.00 0.00 0.00 73 1012.1
20260904140543 73 338 0.9 2.6 0.00 0.00 0.00 77 1012.2
20260904135521 74 23 2.6 5.2 0.00 0.00 0.00 76 1012.0
20260904134521 73 23 2.6 6.1 0.00 0.00 0.00 78 1012.2
20260904133521 73 293 3.5 7.8 0.00 0.00 0.00 78 1012.4
20260904132521 72 293 2.6 7.8 0.00 0.00 0.00 80 1012.3
20260904131521 72 270 1.7 5.2 0.00 0.00 0.00 80 1012.2
20260904130521 72 293 1.7 4.3 0.00 0.00 0.00 81 1012.1
20260904125521 71 293 2.6 4.3 0.00 0.00 0.00 81 1011.9
20260904124521 71 23 1.7 4.3 0.00 0.00 0.00 81 1012.1
20260904123521 71 293 2.6 5.2 0.00 0.00 0.00 81 1012.1
20260904122541 71 270 0.9 3.5 0.00 0.00 0.00 81 1012.3
20260904121521 71 315 1.7 4.3 0.00 0.00 0.00 81 1012.2
20260904120521 70 293 0.9 3.5 0.00 0.00 0.00 82 1012.2
20260904115521 70 293 1.7 4.3 0.00 0.00 0.00 82 1012.1
20260904114521 70 293 1.7 4.3 0.00 0.00 0.00 82 1012.0
20260904113523 70 248 0.9 2.6 0.00 0.00 0.00 83 1012.0
20260904112522 69 293 1.7 4.3 0.00 0.00 0.00 83 1011.9
20260904111520 69 248 1.7 4.3 0.00 0.00 0.00 83 1011.9
20260904110541 69 293 0.9 2.6 0.00 0.00 0.00 83 1011.8
20260904105521 69 248 1.7 5.2 0.00 0.00 0.00 84 1011.5
20260904104522 69 270 0.9 1.7 0.00 0.00 0.00 83 1011.6
20260904103520 69 248 0.9 2.6 0.00 0.00 0.00 84 1011.7
20260904102520 69 248 0.9 2.6 0.00 0.00 0.00 85 1011.6
20260904101540 69 248 0.9 1.7 0.00 0.00 0.00 84 1011.3
20260904100520 69 270 0.9 2.6 0.00 0.00 0.00 83 1011.2
20260904095522 69 270 0.9 2.6 0.00 0.00 0.00 83 1011.2
20260904094520 69 270 0.9 1.7 0.00 0.00 0.00 83 1011.0
20260904093541 70 0.0 2.6 0.00 0.00 0.00 83 1011.1
20260904092520 70 270 1.7 4.3 0.00 0.00 0.00 83 1011.0
20260904091520 70 270 2.6 5.2 0.00 0.00 0.00 83 1011.0
20260904090520 71 270 2.6 5.2 0.00 0.00 0.00 83 1010.9
20260904085520 71 293 0.9 4.3 0.00 0.00 0.00 83 1010.7
20260904084521 71 293 1.7 3.5 0.00 0.00 0.00 83 1010.7